AO-07 1 07530U 74089B 19276.73344045 -.00000037 00000-0 49102-4 0 9999 2 07530 101.7579 243.3458 0012267 138.9587 343.9099 12.53640042 53939 UO-11 1 14781U 84021B 19276.63671759 .00000071 00000-0 14785-4 0 9992 2 14781 97.6060 296.2665 0007800 338.2332 21.8550 14.83109595914613 LO-19 1 20442U 90005G 19276.71384456 .00000008 00000-0 19245-4 0 9992 2 20442 98.6566 218.5726 0011456 188.7557 171.3428 14.32933856551701 HUBBLE 1 20580U 90037B 19276.29279067 .00000489 00000-0 18830-4 0 9996 2 20580 28.4688 227.0193 0002703 186.8850 323.8526 15.09274864417013 MET-2/21 1 22782U 93055A 19276.61159369 .00000016 00000-0 92025-6 0 9999 2 22782 82.5466 78.2156 0021278 236.6558 174.3103 13.83820641317655 AO-27 1 22825U 93061C 19276.54869004 -.00000023 00000-0 90680-5 0 9993 2 22825 98.9122 267.6669 0009268 52.3097 307.8923 14.30067490357220 IO-26 1 22826U 93061D 19276.73530109 -.00000016 00000-0 11721-4 0 9996 2 22826 98.9062 267.8359 0009646 41.2040 318.9868 14.30401556357458 FO-29 1 24278U 96046B 19276.62081182 -.00000036 00000-0 14473-5 0 9995 2 24278 98.5540 55.5972 0349668 322.9441 34.8007 13.53093532142261 NOAA-15 1 25338U 98030A 19276.63554929 .00000010 00000-0 23110-4 0 9991 2 25338 98.7421 297.6842 0009410 294.7129 65.3071 14.25933170112483 GO-32 1 25397U 98043D 19276.37606528 -.00000005 00000-0 17258-4 0 9995 2 25397 98.6957 215.2595 0002392 87.1508 272.9945 14.23671455103051 ISS 1 25544U 98067A 19276.84077073 .00002514 00000-0 51787-4 0 9995 2 25544 51.6442 182.4500 0007553 112.5769 355.3109 15.50144218192116 NO-44 1 26931U 01043C 19276.74885900 -.00000036 00000-0 18085-4 0 9991 2 26931 67.0500 87.4182 0007431 269.4807 90.5443 14.30554007940289 SO-50 1 27607U 02058C 19276.08789357 -.00000008 00000-0 19744-4 0 9997 2 27607 64.5541 84.3001 0075923 235.8441 123.5447 14.75575270902738 CO-55 1 27844U 03031E 19276.59091339 .00000039 00000-0 37249-4 0 9997 2 27844 98.6856 283.2109 0010965 82.8411 277.4013 14.22197228843488 CO-57 1 27848U 03031J 19276.26167859 .00000021 00000-0 29503-4 0 9991 2 27848 98.6931 283.4087 0010878 94.1162 266.1259 14.21789898843289 RS-22 1 27939U 03042A 19276.73906160 .00000138 00000-0 33357-4 0 9993 2 27939 98.0570 50.5621 0014193 89.4708 270.8126 14.66806926856232 NOAA-18 1 28654U 05018A 19276.60220176 .00000055 00000-0 54515-4 0 9992 2 28654 99.0847 325.1156 0013552 234.5735 125.4171 14.12455996740606 CO-58 1 28895U 05043F 19276.83647500 .00000124 00000-0 32673-4 0 9994 2 28895 97.9749 55.9904 0017090 18.1403 342.0406 14.63695511743155 Falconsat-3 1 30776U 07006E 19276.06476198 .00002758 00000-0 76838-4 0 9990 2 30776 35.4340 131.6196 0003004 332.5495 27.5073 15.36557302697057 CO-65 1 32785U 08021C 19276.71727688 .00000198 00000-0 26976-4 0 9999 2 32785 97.5556 271.4144 0011494 268.2125 91.7776 14.88351645619606 AAUSAT2 1 32788U 08021F 19276.28797624 .00000124 00000-0 16408-4 0 9999 2 32788 97.4960 287.2999 0011256 195.2687 164.8196 14.94808395620840 DO-64 1 32789U 08021G 19276.18530775 .00000896 00000-0 63555-4 0 9992 2 32789 97.4543 322.5883 0013719 118.2741 241.9874 15.07144490623000 CO-66 1 32791U 08021J 19276.55515443 .00000409 00000-0 46855-4 0 9995 2 32791 97.5315 277.3313 0011979 238.8080 121.1965 14.90878529620035 RS-30 1 32953U 08025A 19276.84904988 .00000020 00000-0 75656-4 0 9997 2 32953 82.4981 78.1159 0018681 255.2615 104.6393 12.43091358515628 PRISM 1 33493U 09002B 19276.36273591 .00000405 00000-0 40965-4 0 9991 2 33493 98.1217 201.3625 0014531 184.3515 175.7581 14.96751353581105 NOAA-19 1 33591U 09005A 19276.58984414 -.00000007 00000-0 21633-4 0 9990 2 33591 99.1878 270.3371 0014957 79.4971 280.7884 14.12378531549001 TISAT-1 1 36799U 10035E 19275.43842038 .00000434 00000-0 49781-4 0 9993 2 36799 98.1696 71.1888 0013618 98.7355 261.5405 14.91165811500526 JUGNU 1 37839U 11058B 19276.68972479 .00000329 00000-0 33520-4 0 9993 2 37839 19.9621 45.9219 0019086 66.5054 58.2532 14.12660255412408 SRMSAT 1 37841U 11058D 19275.97894220 .00000312 00000-0 26205-4 0 9998 2 37841 19.9720 109.2067 0011819 284.2430 231.1997 14.10640286411720 AO-71 1 37854U 11061E 19276.35638616 .00001392 00000-0 78163-4 0 9993 2 37854 101.7022 229.4217 0160360 108.9064 252.9609 15.06601514433050 HRBE 1 37855U 11061F 19276.73131550 .00001120 00000-0 63471-4 0 9996 2 37855 101.7145 227.2773 0173051 119.3992 242.4621 15.05611836432882 ALMASAT-1 1 38078U 12006B 19276.70656819 .00041374 45170-5 20158-3 0 9992 2 38078 69.4234 318.8331 0133804 94.0799 21.5618 15.70509770414249 HORYU-2 1 38340U 12025D 19276.70500187 .00000144 00000-0 29087-4 0 9990 2 38340 98.3193 318.4528 0012420 138.9280 221.2866 14.75754523396945 RS-40 1 38735U 12041C 19275.82975818 .00000025 00000-0 11291-3 0 9990 2 38735 82.4784 161.9293 0017937 6.2064 353.9234 12.42579134325734 BEESAT-3 1 39135U 13015F 19276.37018917 .00001033 00000-0 60373-4 0 9992 2 39135 64.8687 54.5814 0035181 294.8782 64.8688 15.17626881356433 BEESAT-2 1 39136U 13015G 19276.77745184 .00000898 00000-0 54872-4 0 9995 2 39136 64.8694 57.3969 0027031 300.3239 59.5214 15.17046680356416 ZACUBE-1 1 39417U 13066B 19276.58088559 .00000215 00000-0 33256-4 0 9994 2 39417 97.5629 284.0762 0060004 44.6520 315.9504 14.81154828316867 TRITON-1 1 39427U 13066M 19276.68301324 .00000166 00000-0 34367-4 0 9993 2 39427 97.6893 247.5207 0113615 182.2064 177.8656 14.67884507314037 GOMX-1 1 39430U 13066Q 19276.79510615 .00000169 00000-0 40010-4 0 9999 2 39430 97.7570 226.3506 0149961 276.8233 81.5929 14.59291358312222 LO-74 1 39440U 13066AA 19276.53311007 .00000209 00000-0 35723-4 0 9996 2 39440 97.6091 268.6972 0081709 97.7251 263.3247 14.75891741315733 AO-73 1 39444U 13066AE 19276.72473672 .00000266 00000-0 38906-4 0 9997 2 39444 97.5601 286.2586 0058997 37.7164 322.8163 14.81981981315786 SPROUT 1 39770U 14029E 19276.73071511 .00000812 00000-0 95731-4 0 9992 2 39770 97.8887 19.3582 0010051 93.3001 266.9415 14.87442852290746 DUCHIFAT-1 1 40021U 14033M 19276.74389568 .00000523 00000-0 59150-4 0 9997 2 40021 97.9238 201.6924 0014248 59.8043 300.4584 14.90693674287492 NANOSATCBR1 1 40024U 14033Q 19276.29009883 .00000315 00000-0 38678-4 0 9990 2 40024 97.9121 198.3823 0013579 64.9320 295.3305 14.89898131287314 EO-79 1 40025U 14033R 19276.34987797 .00000267 00000-0 34340-4 0 9994 2 40025 97.9033 195.8498 0013849 70.4585 289.8126 14.88990093287196 DTUSAT-2 1 40030U 14033W 19276.24080719 .00000264 00000-0 34318-4 0 9999 2 40030 97.8942 193.7182 0013308 66.9810 293.2809 14.88578235287106 EO-80 1 40032U 14033Y 19276.31764714 .00000289 00000-0 37116-4 0 9999 2 40032 97.8949 193.7960 0013242 67.4357 292.8260 14.88522598287105 ANTELSAT 1 40034U 14033AA 19276.68190088 .00000188 00000-0 35075-4 0 9998 2 40034 97.7451 139.2342 0059974 110.6253 250.1402 14.74140207284437 VELOX-1 1 40057U 14034E 19276.73266607 .00000300 00000-0 49531-4 0 9999 2 40057 98.2489 42.2093 0009896 248.8678 111.1482 14.77716062283577 DAURIA DX 1 1 40071U 14037C 19276.68853811 .00000085 00000-0 18497-4 0 9998 2 40071 98.4400 76.1211 0007372 239.3488 120.6997 14.81294461283099 UKUBE-1 1 40074U 14037F 19276.69716353 .00000239 00000-0 35831-4 0 9993 2 40074 98.4478 84.8046 0003274 218.4500 141.6483 14.84103949283523 HODOYOSHI-1 1 40299U 14070B 19276.78404145 .00000760 00000-0 34746-4 0 9995 2 40299 97.3432 354.2852 0013763 31.2869 91.2832 15.23461141272578 CHUBUSAT-1 1 40300U 14070C 19276.82392669 .00000781 00000-0 36846-4 0 9996 2 40300 97.3189 348.2554 0021098 40.8127 93.2248 15.22189576272318 QSAT-EOS 1 40301U 14070D 19276.78934830 .00002109 00000-0 83645-4 0 9999 2 40301 97.3208 351.8443 0026390 23.7892 97.9060 15.26173440272621 FIREBIRD FU3 1 40377U 15003B 19276.73477623 .00002085 00000-0 84561-4 0 9997 2 40377 99.1201 278.9537 0127457 93.8450 267.7362 15.19075310258179 FIREBIRD FU4 1 40378U 15003C 19276.78725208 .00002063 00000-0 83630-4 0 9990 2 40378 99.1205 279.0994 0127669 93.5541 268.0299 15.19085289258186 GRIFEX 1 40379U 15003D 19276.75039414 .00001360 00000-0 61217-4 0 9991 2 40379 99.1216 272.4623 0135748 113.7380 247.8155 15.15688158257802 NO-84 1 40654U 15025D 19276.33506000 .00015139 00000 0 20507-3 0 7380 2 40654 54.9910 45.7824 0129644 239.5038 119.3118 15.48636956128968 NO-83 1 40655U 15025E 19276.49926895 .00178906 23262-4 44398-3 0 9205 2 40655 54.9606 261.7312 0032543 337.0232 22.9347 15.94600828130667 DEORBITSAIL 1 40719U 15032E 19276.23731604 .00000379 00000-0 61243-4 0 9992 2 40719 97.8942 165.8249 0015863 326.9969 33.0250 14.76802974227983 NUDT-PHONESAT 1 40900U 15049B 19276.74224050 .00002389 00000-0 10414-3 0 9996 2 40900 97.4377 285.0454 0012833 161.6502 285.4269 15.23093788223951 XW-2A 1 40903U 15049E 19276.72987615 .00002389 00000-0 57620-4 0 9991 2 40903 97.3269 320.0531 0014915 114.5250 9.1244 15.42145759226740 XW-2C 1 40906U 15049H 19276.74754833 .00000660 00000-0 38027-4 0 9990 2 40906 97.4713 277.0762 0014305 182.0541 264.7389 15.15767413223216 XW-2D 1 40907U 15049J 19276.71183563 .00000691 00000-0 39396-4 0 9998 2 40907 97.4689 276.7213 0014030 179.5398 268.0446 15.15963352223224 LILACSAT-2 1 40908U 15049K 19276.74067282 .00000548 00000-0 33882-4 0 9996 2 40908 97.4829 275.4595 0015308 187.3612 259.5607 15.13858815223000 XW-2E 1 40909U 15049L 19276.76944995 .00000986 00000-0 51848-4 0 9992 2 40909 97.4611 279.7861 0013597 173.0702 272.6416 15.17930520223432 XW-2F 1 40910U 15049M 19276.70778816 .00000941 00000-0 50275-4 0 9999 2 40910 97.4651 278.8777 0014791 171.6110 300.2699 15.17442842223243 XW-2B 1 40911U 15049N 19276.74930953 .00000696 00000-0 39743-4 0 9990 2 40911 97.4713 277.4256 0013720 179.6091 267.0802 15.15891422223120 DCBB 1 40912U 15049P 19276.70777573 .00001181 00000-0 58266-4 0 9995 2 40912 97.4508 282.6879 0015396 153.7519 320.6237 15.19773299223562 TW-1C 1 40926U 15051B 19276.81451512 .00015723 00000-0 21330-3 0 9995 2 40926 97.1240 322.9164 0006929 348.2634 101.2097 15.57704302226823 TW-1A 1 40928U 15051D 19276.76644499 .00003617 00000-0 88687-4 0 9997 2 40928 97.1374 305.6856 0012248 50.0514 39.4412 15.41280789225660 IO-86 1 40931U 15052B 19276.74250103 .00000763 00000-0 17189-4 0 9993 2 40931 5.9999 13.3100 0012620 235.5951 124.3004 14.76616124217113 LQSat 1 40958U 15057A 19276.20735339 .00000014 00000-0 98329-5 0 9992 2 40958 97.8889 342.4731 0016795 258.4918 101.4405 14.73090420214480 AO-85 1 40967U 15058D 19276.44304442 .00000058 00000 0 25315-4 0 8244 2 40967 64.7786 194.2136 0187215 167.9962 192.5700 14.75996957123491 ATHENOXAT-1 1 41168U 15077C 19276.85215546 .00002114 00000-0 76517-4 0 9999 2 41168 14.9878 150.6508 0011429 144.2630 215.8457 15.13805167210249 ChubuSat-2 1 41338U 16012B 19276.15124510 .00000384 00000-0 23183-4 0 9999 2 41338 31.0025 188.1914 0013656 77.9646 282.2519 15.00186720198911 ChubuSat-3 1 41339U 16012C 19276.77364422 .00000372 00000-0 22188-4 0 9997 2 41339 31.0104 182.1911 0013366 91.7498 268.4668 15.00359902199004 Horyu-4 1 41340U 16012D 19276.08450339 .00000565 00000-0 36181-4 0 9998 2 41340 31.0043 176.9502 0013848 105.2251 254.9917 15.01322318199018 OUFTI-1 1 41458U 16025C 19276.83270690 .00000770 00000-0 43240-4 0 9997 2 41458 98.1004 9.1244 0165717 357.3215 2.7105 15.06055992188698 e-st@r-II 1 41459U 16025D 19276.80867979 .00001526 00000-0 81636-4 0 9998 2 41459 98.1007 8.6994 0166882 358.7102 1.3672 15.05680138188668 AAUSAT4 1 41460U 16025E 19276.84723364 .00002040 00000-0 10526-3 0 9994 2 41460 98.0955 10.2574 0156522 350.3602 9.4597 15.07657581188817 LO-87 1 41557U 16033B 19276.83719601 .00001330 00000-0 52258-4 0 9998 2 41557 97.4151 3.7108 0012114 280.3964 79.5910 15.27410378186443 NuSat2 1 41558U 16033C 19276.80348267 .00001424 00000-0 52685-4 0 9990 2 41558 97.4183 5.0736 0011157 280.5115 79.4868 15.29323454186505 Lapan A3 1 41603U 16040E 19276.77596727 .00000125 00000-0 89908-5 0 9997 2 41603 97.3489 332.7811 0014304 30.1919 79.7242 15.19747410182007 Swayam 1 41607U 16040J 19276.40396173 .00001514 00000-0 66193-4 0 9997 2 41607 97.3549 336.4132 0013873 23.1865 336.9995 15.23519876182121 Pratham 1 41783U 16059A 19276.29314171 .00000028 00000-0 14718-4 0 9992 2 41783 98.0562 333.4593 0034527 50.4778 309.9467 14.63011511161130 AlSat 1N 1 41789U 16059G 19276.73744827 .00000086 00000-0 25339-4 0 9997 2 41789 98.0598 336.1241 0029028 38.7029 321.6249 14.64264923161310 ScatSat 1 41790U 16059H 19276.68221579 .00000031 00000-0 18749-4 0 9994 2 41790 98.1988 319.1298 0005914 4.8204 355.3041 14.50889355159842 TY-1 1 41844U 16066D 19276.70363566 .00000925 00000-0 40539-4 0 9992 2 41844 97.4061 282.8224 0015176 166.0210 306.0630 15.24414624160990 Pegasus-1 1 41846U 16066F 19275.60178963 .00000213 00000-0 43875-4 0 9993 2 41846 098.7013 317.4343 0366252 283.5684 072.4961 14.37621443151773 CAS-2T 1 41847U 16066G 19276.20684950 .00000040 00000-0 17475-4 0 9994 2 41847 98.6951 318.5746 0364748 278.0478 77.9482 14.38008264152300 EO-88 1 42017U 17008BX 19276.14838863 .00001678 00000-0 68551-4 0 9997 2 42017 97.3932 342.1025 0007225 142.5569 217.6174 15.25754171146157 nSIGHT1 1 42726U 98067MF 19276.80958355 .00030805 00000-0 20051-3 0 9996 2 42726 51.6331 119.2855 0004640 220.2158 139.8499 15.75632803134682 CAS-4B 1 42759U 17034B 19276.73491567 .00000278 00000-0 30449-4 0 9990 2 42759 43.0212 2.8500 0011604 212.3263 284.5273 15.09644555127013 CAS-4A 1 42761U 17034D 19276.76008887 .00000312 00000-0 32491-4 0 9993 2 42761 43.0202 2.1782 0011993 213.0977 291.1908 15.09722234127011 UCLSat 1 42765U 17036A 19276.70979617 .00001241 00000-0 55819-4 0 9992 2 42765 97.3398 332.3767 0010651 205.8690 154.2016 15.22921425126752 NIUSat 1 42766U 17036B 19276.33273172 .00000990 00000-0 47288-4 0 9996 2 42766 97.3395 330.1642 0015025 200.6392 159.4239 15.21251832126447 LituanicaSAT 2 1 42768U 17036D 19276.68125674 .00001839 00000-0 80765-4 0 9999 2 42768 97.3435 332.0194 0014586 197.6065 162.4668 15.23093868126591 Aalto 1 1 42775U 17036L 19276.27813652 .00000776 00000-0 37511-4 0 9992 2 42775 97.3381 330.4523 0013354 199.9097 160.1620 15.21456550126412 URSA MAIOR 1 42776U 17036M 19276.68964556 .00000840 00000-0 40206-4 0 9995 2 42776 97.3391 331.0368 0013221 198.2053 161.8711 15.21600852126487 Max Valier Sat 1 42778U 17036P 19276.68770623 .00000939 00000-0 43894-4 0 9992 2 42778 97.3433 331.9400 0011746 201.2134 158.8617 15.22159732126519 Pegasus 1 42784U 17036V 19275.10907917 .00001204 00000-0 54632-4 0 9991 2 42784 097.3405 330.5982 0011070 212.9630 147.0918 15.22657739126306 NUDATSat 1 42787U 17036Y 19276.22022196 .00001209 00000-0 53245-4 0 9999 2 42787 97.3447 332.5460 0009719 214.2260 145.8359 15.23695480126366 SUCHAI 1 1 42788U 17036Z 19276.40056567 .00001397 00000-0 62104-4 0 9991 2 42788 97.3408 332.2336 0010788 206.6489 153.4195 15.23106686126592 SKCUBE 1 42789U 17036AA 19275.63527857 .00001319 00000-0 59017-4 0 9994 2 42789 097.3406 331.4065 0010580 209.7561 150.3075 15.22991424126398 VZLUSAT 1 1 42790U 17036AB 19275.61628552 .00001743 00000-0 75482-4 0 9993 2 42790 097.3418 331.9542 0010230 207.8387 152.2304 15.23695514126427 VENTA 1 1 42791U 17036AC 19275.41149752 .00001211 00000-0 54427-4 0 9998 2 42791 097.3404 331.2385 0010203 210.8286 149.2353 15.22998682126356 Robusta 1B 1 42792U 17036AD 19276.14556982 .00001413 00000-0 62688-4 0 9999 2 42792 97.3405 332.0806 0010190 208.1264 151.9424 15.23169569126495 D-SAT 1 42794U 17036AF 19276.37132795 .00000086 00000-0 12710-4 0 9994 2 42794 97.5290 316.3225 0127455 145.4787 215.4794 14.91140760124239 TechnoSat 1 42829U 17042E 19276.72144491 .00000181 00000-0 23606-4 0 9997 2 42829 97.5488 165.0695 0015646 65.9811 294.3044 14.91003925120881 TOMSK-TPU 120 1 42910U 98067MZ 19276.88372250 .00316721 56383-4 45933-3 0 9992 2 42910 51.6289 84.9136 0006512 277.2536 228.3763 16.04683314122097 TNS 0-2 1 42914U 98067ND 19276.49118341 .00468670 11977-3 52370-3 0 9995 2 42914 51.6252 86.4399 0007352 283.6822 76.3373 16.08773107122037 QIKCOM-1 1 42983U 98067NF 19276.87239377 .00003652 00000-0 51568-4 0 9992 2 42983 51.6386 161.9190 0004376 159.4522 200.6648 15.59464861110065 AO-91 1 43017U 17073E 19276.31897141 .00000425 00000-0 38538-4 0 9994 2 43017 97.7203 193.5051 0258094 170.8809 189.7226 14.78639424101016 EcAMSat 1 43019U 98067NG 19276.85551733 .00006373 00000-0 76574-4 0 9991 2 43019 51.6394 155.1092 0005025 145.2812 214.8511 15.62310519192473 PICSAT 1 43132U 18004X 19276.22607691 .00001361 00000-0 59570-4 0 9995 2 43132 97.4789 343.7929 0008360 235.0717 124.9735 15.23767218 95724 AO-92 1 43137U 18004AC 19276.22654892 .00001074 00000-0 47862-4 0 9997 2 43137 97.4779 343.7438 0007885 237.0464 123.0015 15.23616048 95719 TianYi 2 1 43155U 18008A 19276.75931609 .00001159 00000-0 72521-4 0 9997 2 43155 97.4782 347.0099 0016906 320.0222 193.8245 15.11259370 93998 Zhou Enlai 1 43156U 18008B 19276.77411427 .00000617 00000-0 40961-4 0 9992 2 43156 97.4824 346.9034 0013974 319.4188 189.1196 15.10766435 93962 TianYi 6 1 43158U 18008D 19276.77657317 .00000529 00000-0 36080-4 0 9993 2 43158 97.4788 346.2712 0012748 316.2318 161.4701 15.10345186 93924 S-Net G 1 43186U 18014G 19276.32902739 -.00000202 00000-0 -12595-4 0 9998 2 43186 97.7008 183.1883 0011531 15.4431 344.7140 14.96682494 91080 S-Net H 1 43187U 18014H 19276.32884550 -.00000205 00000-0 -12902-4 0 9994 2 43187 97.7006 183.1737 0011501 15.3711 344.7857 14.96682667 91081 S-Net J 1 43188U 18014J 19276.32866558 -.00000213 00000-0 -13545-4 0 9996 2 43188 97.7009 183.1938 0011498 15.5033 344.6538 14.96682371 91089 S-Net K 1 43189U 18014K 19276.32901091 -.00000199 00000-0 -12386-4 0 9994 2 43189 97.7005 183.1708 0011507 15.3429 344.8140 14.96682026 89635 FMN 1 1 43192U 18015A 19276.74283377 .00002739 00000-0 11383-3 0 9990 2 43192 97.4133 43.2372 0014787 278.7037 189.0988 15.24573216 92628 Shaonian Xing 1 43199U 18015H 19276.79520362 .00001988 00000-0 82334-4 0 9990 2 43199 97.3917 42.1847 0015640 289.9239 229.6331 15.25008476 92687 1KUNS-PF 1 43466U 98067NP 19276.86875698 .00027130 00000-0 22444-3 0 9997 2 43466 51.6348 149.0614 0001787 162.3642 197.7418 15.70059494 79731 UBAKUSAT 1 43467U 98067NQ 19276.71013401 .00013718 00000-0 14216-3 0 9993 2 43467 51.6354 157.0225 0002982 123.0034 237.1249 15.65006509 79625 Irazu 1 43468U 98067NR 19276.80338848 .00041406 00000-0 27725-3 0 9993 2 43468 51.6340 143.3114 0002180 174.0764 186.0262 15.74839376179794 EnduroSat One 1 43551U 98067NZ 19276.70733473 .00018165 00000-0 18133-3 0 9997 2 43551 51.6357 159.2548 0005879 181.9985 178.0988 15.65684872 69829 EQUISat 1 43552U 98067PA 19276.72310116 .00013608 00000-0 14723-3 0 9993 2 43552 51.6371 161.6484 0006177 180.7779 179.3207 15.63902421 69753 UiTMSat 1 1 43589U 98067PD 19276.71083757 .00015506 00000-0 16436-3 0 9992 2 43589 51.6345 162.2354 0005454 186.7070 173.3853 15.64301472 65481 Maya 1 1 43590U 98067PE 19276.70471942 .00016860 00000-0 17809-3 0 9999 2 43590 51.6343 162.2013 0005295 187.8755 172.2158 15.64317468 65419 Bhutan 1 1 43591U 98067PF 19276.11645378 .00019408 00000-0 20373-3 0 9992 2 43591 51.6357 165.0551 0005684 186.0305 174.0622 15.64360093 65325 SiriusSat 1 1 43595U 98067PG 19276.16241616 .00016086 00000-0 17651-3 0 9992 2 43595 51.6348 166.8304 0004153 146.1422 213.9838 15.63387274 64488 SiriusSat 2 1 43596U 98067PH 19276.71524895 .00015083 00000-0 16685-3 0 9999 2 43596 51.6358 164.5691 0004627 148.7865 211.3405 15.63236676 64569 Tanusha-3 1 43597U 98067PJ 19276.71533341 .00020864 00000-0 20879-3 0 9999 2 43597 51.6339 161.4868 0004227 162.6208 197.4933 15.65524366 64606 SurfSat 1 43614U 18070B 19276.38976345 .00003031 00000-0 81379-4 0 9993 2 43614 93.0333 47.7221 0013233 251.0012 108.9808 15.37926953 58802 CP-7 DAVE 1 43615U 18070C 19276.33652083 .00003134 00000-0 84399-4 0 9998 2 43615 93.0333 47.6990 0013349 250.6901 109.2909 15.37829081 58793 ELFIN-B 1 43616U 18070D 19276.62158060 .00003834 00000-0 10053-3 0 9999 2 43616 93.0296 47.7241 0014099 253.3660 106.6046 15.38622083 58851 ELFIN-A 1 43617U 18070E 19276.35177608 .00004475 00000-0 11711-3 0 9993 2 43617 93.0351 47.9107 0013361 250.7597 109.2211 15.38687835 58813 STARS-Me Mother 1 43640U 98067PQ 19275.82275394 .00010069 00000-0 12832-3 0 9996 2 43640 51.6371 174.3465 0006096 129.1921 230.9625 15.59979442 56281 CubeBel 1 1 43666U 18083E 19276.76137291 .00000967 00000-0 51186-4 0 9993 2 43666 97.5145 300.4878 0015168 171.3519 277.4711 15.17740806 51527 Changshagaoxin 1 43669U 18083H 19276.78416599 .00000721 00000-0 39975-4 0 9999 2 43669 97.5012 299.4911 0011444 161.1354 199.0305 15.16906935 51462 Ten-Koh 1 43677U 18084G 19276.31936353 .00000181 00000-0 24490-4 0 9999 2 43677 97.8614 29.4151 0014694 292.1685 67.7973 14.90197389 50491 PO-101 1 43678U 18084H 19276.74056941 -.00000156 00000-0 -98548-5 0 9993 2 43678 97.8608 30.5871 0009346 316.3833 43.6656 14.91570798 50603 IRVINE 01 1 43693U 18088D 19275.63201016 .00002418 00000-0 10459-3 0 9990 2 43693 085.0342 248.1298 0019125 156.1061 204.1073 15.21715137049475 QO-100 1 43700U 18090A 19276.27899073 .00000124 00000-0 00000 0 0 9998 2 43700 0.0192 162.6994 0001389 39.4092 295.8355 1.00273613 3365 Reaktor Hello World 1 43743U 18096AA 19276.74533831 .00001488 00000-0 59138-4 0 9995 2 43743 97.4511 346.5866 0017304 322.5629 190.5327 15.26800954 47066 MinXSS-2 1 43758U 18099A 19276.34372134 .00000743 00000-0 72239-4 0 9997 2 43758 97.7366 347.0927 0014809 336.5828 23.4717 14.95469754 45373 AO-95 1 43770U 18099N 19276.74063225 .00000605 00000-0 60791-4 0 9990 2 43770 97.7366 347.1961 0013956 342.6512 17.4230 14.94818705 45417 RANGE-B 1 43772U 18099Q 19276.25292410 .00000116 00000-0 15889-4 0 9993 2 43772 97.7423 346.9587 0013394 330.9160 29.1313 14.94943290 45330 RANGE-A 1 43773U 18099R 19276.19572504 .00000201 00000-0 23698-4 0 9994 2 43773 97.7311 346.4824 0012732 331.4914 28.5609 14.94839529 45323 MOVE-II 1 43780U 18099Y 19276.35135174 .00000882 00000-0 85576-4 0 9996 2 43780 97.7361 346.8856 0012881 342.3950 17.6822 14.95139033 45343 SNUSat 2 1 43782U 18099AA 19276.14669374 .00000674 00000-0 66724-4 0 9992 2 43782 97.7364 346.7280 0011895 332.2019 27.8565 14.95098456 45324 SnugLite 1 43784U 18099AC 19276.19777731 .00000340 00000-0 36190-4 0 9990 2 43784 97.7326 346.6799 0014443 339.0000 21.0625 14.95183073 45340 ITASat 1 1 43786U 18099AE 19276.32954175 .00000214 00000-0 24698-4 0 9996 2 43786 97.7379 347.0228 0014509 337.3895 22.6684 14.95180700 45366 EAGLET 1 1 43790U 18099AJ 19276.72124493 -.00000059 00000-0 -12090-6 0 9991 2 43790 97.7368 347.5493 0012946 341.7723 18.3032 14.95554931 45124 ESEO 1 43792U 18099AL 19276.25141903 -.00000297 00000-0 -21535-4 0 9992 2 43792 97.7349 347.0158 0012803 340.4760 19.5969 14.95529335 45118 CSIM 1 43793U 18099AM 19276.28976426 .00000852 00000-0 81517-4 0 9993 2 43793 97.7323 346.9497 0012174 338.6072 21.4639 14.95780579 45093 Astrocast 0.1 1 43798U 18099AS 19276.27374891 .00000436 00000-0 44266-4 0 9993 2 43798 97.7357 347.1617 0011374 322.7977 37.2455 14.95759859 45358 JO-97 1 43803U 18099AX 19276.77307356 -.00000032 00000-0 23952-5 0 9990 2 43803 97.7340 347.3497 0014544 337.0248 23.0321 14.95325595 45426 Suomi 100 1 43804U 18099AY 19276.63884909 -.00000018 00000-0 36426-5 0 9994 2 43804 97.7338 347.2138 0014619 337.5953 22.4628 14.95322967 45418 Al Farabi 2 1 43805U 18099AZ 19276.83052378 .00000420 00000-0 43198-4 0 9993 2 43805 97.7343 347.4302 0014565 337.2451 22.8123 14.95394396 45442 PWSat 2 1 43814U 18099BJ 19276.24067302 .00019295 00000-0 14700-2 0 9996 2 43814 97.7709 349.1955 0004502 328.6864 31.4093 15.02095379 44835 CHOMPTT 1 43855U 18104G 19276.24279261 .00001556 00000-0 65207-4 0 9998 2 43855 85.0391 345.9975 0015564 287.2389 72.7146 15.22523029 44236 ISAT 1 43879U 18111D 19276.81003885 .00000404 00000-0 41036-4 0 9997 2 43879 97.7090 183.2231 0013997 31.4686 328.7369 14.96043542 39965 UWE-4 1 43880U 18111E 19276.69760344 .00000819 00000-0 77516-4 0 9997 2 43880 97.7106 183.2517 0013293 33.8375 326.3691 14.96288383 39957 Sparrow 1 43881U 18111F 19276.28774690 .00000785 00000-0 74399-4 0 9990 2 43881 97.7107 182.8822 0013330 33.6804 326.5262 14.96333525 39887 Lume 1 1 43908U 18111AJ 19276.27093900 .00001252 00000-0 53516-4 0 9995 2 43908 97.2799 178.5708 0021036 339.9690 20.0720 15.24499099 42689 FO-98 1 43933U 19003B 19276.74866598 .00000971 00000-0 45621-4 0 9992 2 43933 97.2703 330.8020 0019618 70.0005 70.8004 15.21749209 39332 FO-99 1 43937U 19003F 19276.74595689 .00001657 00000-0 71184-4 0 9991 2 43937 97.2660 331.3626 0025755 56.9438 40.7479 15.23766894 39386 Delphini 1 1 44030U 98067PW 19276.19058015 .00012297 00000-0 16488-3 0 9996 2 44030 51.6364 177.5686 0004902 172.9948 187.1114 15.58380858 38143 MYSat 1 1 44045U 18092F 19276.80933185 .00004154 00000-0 12998-3 0 9995 2 44045 51.6414 212.0187 0012919 112.4196 247.8160 15.35334523 35692 AstroCast 0.2 1 44083U 19018F 19276.74905829 .00000543 00000-0 27234-4 0 9991 2 44083 97.4577 335.8293 0013869 1.2209 358.9058 15.21465081 28195 AISTechSat 3 1 44103U 19018AB 19276.75165495 .00001070 00000-0 48767-4 0 9992 2 44103 97.4459 335.8676 0013919 18.3099 107.2096 15.22757584 28217 AISat 1 1 44104U 19018AC 19276.76044024 .00000933 00000-0 32570-4 0 9990 2 44104 97.4986 339.3675 0060072 48.4482 312.1887 15.30610882 28384 Raavana-1 1 44329U 98067QE 19276.76020775 .00008507 00000-0 14003-3 0 9992 2 44329 51.6398 181.3932 0007978 119.5874 240.5912 15.53211172 16894 Uguisu 1 44330U 98067QF 19276.05514488 .00008175 00000-0 13513-3 0 9991 2 44330 51.6400 184.9339 0007957 115.8039 244.3773 15.53157443 16762 NepaliSat-1 1 44331U 98067QG 19276.30740303 .00008005 00000-0 13209-3 0 9991 2 44331 51.6399 183.6195 0008012 119.0375 241.1419 15.53237785 16814 Prox-1 1 44339U 19036A 19275.45410705 .00001037 00000-0 19792-3 0 9994 2 44339 24.0010 301.1501 0010842 199.6999 160.3105 14.52671470 14424 OBJECT H 1 44346U 19036H 19276.29227269 .00010855 00000-0 17014-3 0 9999 2 44346 28.5241 270.9653 0386160 83.0092 281.4250 14.97560331 14997 OBJECT J 1 44347U 19036J 19276.23683152 .00044448 00000-0 68897-3 0 9991 2 44347 28.5276 269.6077 0370338 85.0472 279.2256 15.01452799 15003 OBJECT K 1 44348U 19036K 19276.39611302 .00009418 00000-0 14495-3 0 9990 2 44348 28.5191 269.8194 0386022 84.6551 279.7963 14.97865782 15017 Armadillo 1 44352U 19036P 19276.23808988 .00013597 00000-0 21392-3 0 9993 2 44352 28.5323 270.6019 0381336 83.2590 281.1234 14.98585330 14933 NO-104 1 44354U 19036R 19276.34719000 .00008417 00000-0 12717-3 0 9999 2 44354 28.5301 269.5044 0383735 84.5555 279.8675 14.98621451 14990 NO-103 1 44355U 19036S 19276.31533229 .00015091 00000-0 23013-3 0 9991 2 44355 28.5305 269.2534 0378714 85.0108 279.3594 14.99828240 14998 Oculus-ASR 1 44356U 19036T 19276.17511156 .00041218 00000-0 58197-3 0 9992 2 44356 28.5258 268.0479 0367347 86.9694 277.2776 15.04021473 15003 CP9 1 44360U 19036X 19276.14078106 .00027560 00000-0 37625-3 0 9994 2 44360 28.5175 268.6210 0379372 86.2638 278.1093 15.02223927 14868 Move-IIb 1 44398U 19038N 19276.78958209 .00001530 00000-0 93060-4 0 9993 2 44398 97.4999 236.9968 0024099 297.2517 62.6259 15.11730917 13646 SONATE 1 44400U 19038Q 19276.78842389 .00000546 00000-0 35737-4 0 9991 2 44400 97.5014 237.0053 0023887 295.0690 64.8061 15.11692117 13642 BeeSat 9 1 44412U 19038AC 19276.84628757 .00001031 00000-0 63810-4 0 9995 2 44412 97.5010 237.0783 0021595 301.3674 58.5443 15.11858521 13342 JAISAT-1 1 44419U 19038F 19276.68439411 .00000929 00000-0 57152-4 0 9998 2 44419 97.5010 236.9888 0020490 301.9096 58.0141 15.12349020 13632 LightSail-2 1 44420U 19036AC 19276.06700792 .00007889 00000-0 18169-2 0 9998 2 44420 24.0068 297.2484 0016634 163.5666 196.5364 14.53147826 12654 Taurus 1 1 44530U 19059C 19276.79015570 -.00000058 00000-0 -35700-5 0 9994 2 44530 98.5863 350.2770 0014499 206.1885 153.8622 14.45237163 3127 /EX
